When you browse on this site, cookies collect data to enhance your experience and personalize the content and advertising you see.
Visit our Privacy Policy to learn more. By continuing to use the site, you agree to this use of cookies and data.

Hourly Weather Spicino

Today, 11 July, Saturday

Time Temperature Precipitation Wind Pressure Humidity
00:00 +15°C° 0.1 mm 4 mps 740 mmHg 95%
01:00 +15°C° 0.1 mm 4 mps 740 mmHg 96%
02:00 +15°C° 0 mm 4 mps 740 mmHg 96%
03:00 +15°C° 0 mm 4 mps 740 mmHg 96%
04:00 +17°C° 0 mm 4 mps 740 mmHg 96%
05:00 +17°C° 0 mm 4 mps 739 mmHg 96%
06:00 +17°C° 0 mm 4 mps 739 mmHg 95%
07:00 +18°C° 0 mm 4 mps 739 mmHg 94%
08:00 +18°C° 0 mm 4 mps 739 mmHg 94%
09:00 +19°C° 0.3 mm 4 mps 739 mmHg 94%
10:00 +19°C° 0.3 mm 4 mps 738 mmHg 94%
11:00 +20°C° 0.3 mm 5 mps 738 mmHg 93%
12:00 +21°C° 0.4 mm 5 mps 739 mmHg 90%
13:00 +22°C° 0.4 mm 5 mps 739 mmHg 86%
14:00 +23°C° 0.4 mm 5 mps 739 mmHg 82%
15:00 +23°C° 0.1 mm 5 mps 739 mmHg 74%
16:00 +23°C° 0.1 mm 5 mps 740 mmHg 66%
17:00 +25°C° 0.1 mm 5 mps 740 mmHg 58%
18:00 +22°C° 0 mm 4 mps 740 mmHg 63%
19:00 +19°C° 0 mm 3 mps 741 mmHg 68%
20:00 +17°C° 0 mm 2 mps 741 mmHg 73%
21:00 +16°C° 0 mm 2 mps 741 mmHg 76%
22:00 +15°C° 0 mm 2 mps 742 mmHg 78%
23:00 +13°C° 0 mm 2 mps 742 mmHg 81%

Tomorrow, 12 July, Sunday

Time Temperature Precipitation Wind Pressure Humidity
00:00 +13°C° 0 mm 2 mps 742 mmHg 81%
01:00 +13°C° 0 mm 2 mps 743 mmHg 80%
02:00 +13°C° 0 mm 1 mps 743 mmHg 80%
03:00 +13°C° 0 mm 1 mps 743 mmHg 80%
04:00 +13°C° 0 mm 1 mps 743 mmHg 81%
05:00 +13°C° 0 mm 1 mps 743 mmHg 81%
06:00 +13°C° 0.1 mm 0 mps 743 mmHg 82%
07:00 +13°C° 0.1 mm 0 mps 743 mmHg 82%
08:00 +13°C° 0.1 mm 0 mps 743 mmHg 83%
09:00 +13°C° 0.1 mm 0 mps 743 mmHg 84%
10:00 +13°C° 0.1 mm 0 mps 743 mmHg 84%
11:00 +13°C° 0.1 mm 0 mps 743 mmHg 84%
12:00 +14°C° 0.1 mm 1 mps 743 mmHg 86%
13:00 +14°C° 0.1 mm 1 mps 743 mmHg 87%
14:00 +13°C° 0.1 mm 2 mps 743 mmHg 89%
15:00 +13°C° 0.2 mm 2 mps 743 mmHg 90%
16:00 +13°C° 0.2 mm 2 mps 743 mmHg 91%
17:00 +12°C° 0.2 mm 2 mps 742 mmHg 93%
18:00 +12°C° 0 mm 2 mps 742 mmHg 93%
19:00 +12°C° 0 mm 2 mps 742 mmHg 94%
20:00 +12°C° 0 mm 2 mps 742 mmHg 95%
21:00 +12°C° 0 mm 2 mps 742 mmHg 95%
22:00 +10°C° 0 mm 2 mps 742 mmHg 95%
23:00 +10°C° 0 mm 2 mps 741 mmHg 95%

Day after tomorrow, 13 July, Monday

Time Temperature Precipitation Wind Pressure Humidity
00:00 +10°C° 0.1 mm 2 mps 741 mmHg 95%
01:00 +10°C° 0.1 mm 2 mps 741 mmHg 95%
02:00 +10°C° 0.1 mm 2 mps 741 mmHg 95%
03:00 +10°C° 0.9 mm 2 mps 741 mmHg 96%
04:00 +10°C° 0.9 mm 2 mps 740 mmHg 97%
05:00 +10°C° 0.9 mm 2 mps 740 mmHg 98%
06:00 +12°C° 0.5 mm 2 mps 740 mmHg 97%
07:00 +12°C° 0.5 mm 2 mps 740 mmHg 96%
08:00 +13°C° 0.5 mm 2 mps 740 mmHg 94%
09:00 +14°C° 0 mm 2 mps 740 mmHg 87%
10:00 +15°C° 0 mm 2 mps 740 mmHg 79%
11:00 +17°C° 0 mm 2 mps 740 mmHg 71%
12:00 +18°C° 0 mm 2 mps 740 mmHg 67%
13:00 +19°C° 0 mm 2 mps 740 mmHg 62%
14:00 +20°C° 0 mm 2 mps 740 mmHg 57%
15:00 +20°C° 0 mm 2 mps 740 mmHg 58%
16:00 +20°C° 0 mm 2 mps 739 mmHg 58%
17:00 +20°C° 0 mm 2 mps 739 mmHg 59%
18:00 +19°C° 0.1 mm 2 mps 739 mmHg 68%
19:00 +17°C° 0.1 mm 2 mps 739 mmHg 77%
20:00 +15°C° 0.1 mm 1 mps 739 mmHg 86%
21:00 +14°C° 0 mm 1 mps 739 mmHg 88%
22:00 +13°C° 0 mm 1 mps 739 mmHg 91%
23:00 +12°C° 0 mm 1 mps 739 mmHg 93%

14 July, Tuesday

Time Temperature Precipitation Wind Pressure Humidity
00:00 +12°C° 0 mm 1 mps 739 mmHg 94%
01:00 +11°C° 0 mm 1 mps 739 mmHg 95%
02:00 +11°C° 0 mm 1 mps 739 mmHg 95%
03:00 +11°C° 0 mm 1 mps 739 mmHg 93%
04:00 +12°C° 0 mm 1 mps 739 mmHg 91%
05:00 +12°C° 0 mm 1 mps 739 mmHg 89%
06:00 +14°C° 0 mm 2 mps 740 mmHg 79%
07:00 +16°C° 0 mm 2 mps 740 mmHg 70%
08:00 +18°C° 0 mm 2 mps 740 mmHg 61%
09:00 +19°C° 0 mm 2 mps 740 mmHg 55%
10:00 +20°C° 0 mm 2 mps 740 mmHg 50%
11:00 +21°C° 0 mm 2 mps 740 mmHg 44%
12:00 +23°C° 0 mm 2 mps 740 mmHg 44%
13:00 +22°C° 0 mm 3 mps 740 mmHg 44%
14:00 +22°C° 0 mm 3 mps 740 mmHg 44%
15:00 +23°C° 0 mm 2 mps 740 mmHg 47%
16:00 +21°C° 0 mm 2 mps 740 mmHg 51%
17:00 +21°C° 0 mm 2 mps 740 mmHg 55%
18:00 +19°C° 0 mm 2 mps 740 mmHg 61%
19:00 +17°C° 0 mm 2 mps 740 mmHg 67%
20:00 +16°C° 0 mm 2 mps 740 mmHg 72%
21:00 +14°C° 0 mm 2 mps 740 mmHg 73%
22:00 +13°C° 0 mm 2 mps 740 mmHg 73%
23:00 +12°C° 0 mm 2 mps 740 mmHg 74%

15 July, Wednesday

Time Temperature Precipitation Wind Pressure Humidity
00:00 +12°C° 0 mm 2 mps 740 mmHg 78%
01:00 +10°C° 0 mm 2 mps 740 mmHg 81%
02:00 +10°C° 0 mm 2 mps 740 mmHg 85%
03:00 +10°C° 0 mm 2 mps 740 mmHg 84%
04:00 +10°C° 0 mm 2 mps 741 mmHg 83%
05:00 +11°C° 0 mm 3 mps 741 mmHg 81%
06:00 +13°C° 0 mm 3 mps 741 mmHg 74%
07:00 +14°C° 0 mm 3 mps 741 mmHg 67%
08:00 +17°C° 0 mm 3 mps 740 mmHg 61%
09:00 +18°C° 0 mm 3 mps 740 mmHg 57%
10:00 +19°C° 0 mm 4 mps 740 mmHg 53%
11:00 +20°C° 0 mm 4 mps 740 mmHg 50%
12:00 +21°C° 0 mm 4 mps 740 mmHg 48%
13:00 +21°C° 0 mm 4 mps 740 mmHg 46%
14:00 +22°C° 0 mm 4 mps 739 mmHg 45%
15:00 +22°C° 0 mm 4 mps 739 mmHg 48%
16:00 +21°C° 0 mm 3 mps 739 mmHg 52%
17:00 +21°C° 0 mm 3 mps 739 mmHg 55%
18:00 +20°C° 0 mm 3 mps 739 mmHg 63%
19:00 +18°C° 0 mm 2 mps 739 mmHg 70%
20:00 +17°C° 0 mm 2 mps 739 mmHg 78%
21:00 +16°C° 0 mm 2 mps 738 mmHg 80%
22:00 +15°C° 0 mm 2 mps 738 mmHg 82%
23:00 +14°C° 0 mm 2 mps 738 mmHg 85%

16 July, Thursday

Time Temperature Precipitation Wind Pressure Humidity
00:00 +14°C° 0 mm 2 mps 738 mmHg 84%
01:00 +14°C° 0 mm 2 mps 738 mmHg 84%
02:00 +14°C° 0 mm 2 mps 737 mmHg 83%
03:00 +14°C° 0 mm 2 mps 737 mmHg 83%
04:00 +14°C° 0 mm 2 mps 737 mmHg 83%
05:00 +14°C° 0 mm 2 mps 737 mmHg 83%
06:00 +14°C° 0 mm 3 mps 737 mmHg 78%
07:00 +16°C° 0 mm 3 mps 736 mmHg 73%
08:00 +17°C° 0 mm 3 mps 736 mmHg 69%
09:00 +17°C° 0 mm 3 mps 736 mmHg 70%
10:00 +16°C° 0 mm 3 mps 736 mmHg 71%
11:00 +16°C° 0 mm 3 mps 735 mmHg 72%
12:00 +16°C° 0.1 mm 3 mps 735 mmHg 74%
13:00 +16°C° 0.1 mm 3 mps 735 mmHg 75%
14:00 +15°C° 0.1 mm 2 mps 735 mmHg 77%
15:00 +15°C° 0 mm 2 mps 735 mmHg 75%
16:00 +15°C° 0 mm 2 mps 734 mmHg 74%
17:00 +15°C° 0 mm 2 mps 734 mmHg 73%
18:00 +14°C° 0 mm 2 mps 734 mmHg 75%
19:00 +14°C° 0 mm 1 mps 734 mmHg 78%
20:00 +13°C° 0 mm 1 mps 734 mmHg 80%
21:00 +13°C° 0 mm 1 mps 733 mmHg 81%
22:00 +12°C° 0 mm 1 mps 733 mmHg 81%
23:00 +12°C° 0 mm 1 mps 733 mmHg 82%
Show more